Elmira, NY

8:04 AM EDT on June 23, 2017 (GMT -0400)
Elmira-Corning Regional

Weather History for KELM - January, 2013

Change the Weather History Date:

Wednesday, January 9, 2013

  Actual Average Record
Temperature  
Mean Temperature 30 °F -  
Max Temperature 48 °F 27 °F 61 °F (2008)
Min Temperature 12 °F 11 °F -13 °F (2004)
Degree Days  
Heating Degree Days 35    
Moisture  
Dew Point 20 °F    
Average Humidity 70    
Maximum Humidity 88    
Minimum Humidity 40    
Precipitation  
Precipitation 0.00 in - - ()
Sea Level Pressure  
Sea Level Pressure 30.23 in    
Wind  
Wind Speed 4 mph (West)    
Max Wind Speed 18 mph    
Max Gust Speed 37 mph    
Visibility 9 miles    
Events      
Averages and records for this station are not official NWS values.
T = Trace of Precipitation, MM = Missing Value Source: NWS Daily Summary

Daily Weather History Graph

Daily Weather History Graph

Search for Another Location

Airport or City:

Trip Planner

Search our weather history database for the weather conditions in past years. The results will help you decide how hot, cold, wet, or windy it might be!

Date:

Astronomy

Jan. 09, 2013 Rise Set
Actual Time 7:35 AM EST 4:54 PM EST
Civil Twilight 7:04 AM EST 5:25 PM EST
Nautical Twilight 6:29 AM EST 6:00 PM EST
Astronomical Twilight 5:55 AM EST 6:34 PM EST
Moon 5:12 AM EST (1/9) 2:53 PM EST (1/9)
Length of Visible Light 10h 21m
Length of Day
9h 18m
Waning Crescent, 6% of the Moon is Illuminated
Jan 9
Waning Crescent
Jan 11
New
Jan 18
First Quarter
Jan 26
Full
Feb 3
Last Quarter

Hourly Weather History & Observations

Time (EST) Temp. Windchill Dew Point Humidity Pressure Visibility Wind Dir Wind Speed Gust Speed Precip Events Conditions
12:53 AM 17.1 °F - 12.9 °F 84% 30.35 in 7.0 mi Calm Calm - N/A   Clear
1:53 AM 15.1 °F - 12.0 °F 88% 30.35 in 7.0 mi Calm Calm - N/A   Clear
2:53 AM 12.0 °F - 9.0 °F 88% 30.35 in 9.0 mi Calm Calm - N/A   Clear
3:53 AM 12.0 °F - 8.1 °F 84% 30.34 in 10.0 mi Calm Calm - N/A   Clear
4:53 AM 12.9 °F - 9.0 °F 84% 30.33 in 10.0 mi Calm Calm - N/A   Clear
5:53 AM 12.9 °F - 9.0 °F 84% 30.33 in 10.0 mi Calm Calm - N/A   Clear
6:53 AM 14.0 °F - 10.0 °F 84% 30.31 in 9.0 mi Calm Calm - N/A   Clear
7:53 AM 14.0 °F - 10.0 °F 84% 30.30 in 9.0 mi Calm Calm - N/A   Clear
8:53 AM 16.0 °F - 12.9 °F 88% 30.30 in 7.0 mi Calm Calm - N/A   Clear
9:53 AM 21.0 °F - 18.0 °F 88% 30.25 in 10.0 mi Calm Calm - N/A   Partly Cloudy
10:53 AM 25.0 °F 20.7 °F 19.9 °F 81% 30.25 in 6.0 mi West 3.5 mph - N/A   Haze
11:53 AM 27.0 °F 23.0 °F 21.9 °F 81% 30.14 in 6.0 mi NW 3.5 mph - N/A   Haze
12:53 PM 32.0 °F - 27.0 °F 82% 30.09 in 7.0 mi Calm Calm - N/A   Overcast
1:53 PM 45.0 °F 39.3 °F 30.9 °F 58% 30.06 in 10.0 mi WSW 11.5 mph 19.6 mph N/A   Overcast
2:53 PM 46.9 °F - 33.1 °F 59% 30.06 in 10.0 mi WSW 12.7 mph 21.9 mph N/A   Partly Cloudy
3:53 PM 48.0 °F - 30.9 °F 52% 30.07 in 10.0 mi WSW 15.0 mph 24.2 mph N/A   Clear
4:53 PM 46.0 °F 39.9 °F 28.9 °F 51% 30.09 in 10.0 mi WSW 13.8 mph - N/A   Clear
5:53 PM 45.0 °F 39.7 °F 28.9 °F 53% 30.13 in 10.0 mi WSW 10.4 mph - N/A   Partly Cloudy
6:53 PM 44.1 °F 39.5 °F 28.9 °F 55% 30.15 in 10.0 mi WSW 8.1 mph - N/A   Clear
7:53 PM 43.0 °F 36.4 °F 27.0 °F 53% 30.18 in 10.0 mi West 12.7 mph - N/A   Clear
8:53 PM 44.1 °F 38.1 °F 21.0 °F 40% 30.20 in 10.0 mi West 11.5 mph 24.2 mph N/A   Clear
9:53 PM 43.0 °F 34.8 °F 21.9 °F 43% 30.25 in 10.0 mi West 18.4 mph 36.8 mph N/A   Clear
10:53 PM 42.1 °F 33.9 °F 24.1 °F 49% 30.28 in 10.0 mi WNW 17.3 mph 28.8 mph N/A   Partly Cloudy
11:53 PM 41.0 °F 32.2 °F 26.1 °F 55% 30.31 in 10.0 mi WNW 18.4 mph 32.2 mph N/A   Mostly Cloudy